N605VV KAPA-CYWL

Flight info

Callsign N605VV
Flight time 2h 37m
Altitude 38000
Route MRSHH2 XXWNG DCT MBW J136 BIL J13 GTF J569 YXC DCT ROBTI
Aircraft CL60/M-SBDE1E2E3FGHIJ1J4J5J7M3RWXYZ/LB1V1D1

Departure

Time 2026-05-03 21:49
Airport Centennial Airport (KAPA)

Arrival

Time 2026-05-04 00:26
Airport Williams Lake Airport (CYWL)
Time Latitude Longitude Altitude Speed Heading
2026-05-03 21:26 39.57803 -104.84854 5825 ft 0 kts 263°
2026-05-03 21:43 39.57803 -104.84855 5824 ft 0 kts 263°
2026-05-03 21:43 39.57798 -104.84876 5824 ft 3 kts 231°
2026-05-03 21:43 39.57763 -104.84886 5824 ft 7 kts 187°
2026-05-03 21:44 39.57741 -104.84948 5824 ft 7 kts 259°
2026-05-03 21:44 39.57686 -104.84974 5824 ft 11 kts 178°
2026-05-03 21:44 39.57597 -104.84970 5824 ft 14 kts 178°
2026-05-03 21:44 39.57485 -104.84965 5824 ft 17 kts 178°
2026-05-03 21:45 39.57352 -104.84960 5824 ft 20 kts 178°
2026-05-03 21:45 39.57201 -104.84954 5824 ft 23 kts 178°
2026-05-03 21:45 39.57044 -104.84944 5825 ft 20 kts 177°
2026-05-03 21:45 39.56894 -104.84938 5825 ft 22 kts 177°
2026-05-03 21:46 39.56726 -104.84930 5825 ft 25 kts 178°
2026-05-03 21:46 39.56540 -104.84922 5825 ft 27 kts 177°
2026-05-03 21:46 39.56339 -104.84912 5825 ft 30 kts 177°
2026-05-03 21:46 39.56168 -104.84903 5825 ft 24 kts 179°
2026-05-03 21:47 39.55995 -104.84895 5826 ft 24 kts 178°
2026-05-03 21:47 39.55845 -104.84889 5826 ft 17 kts 177°
2026-05-03 21:47 39.55730 -104.84884 5826 ft 14 kts 177°
2026-05-03 21:47 39.55682 -104.84929 5826 ft 10 kts 265°
2026-05-03 21:48 39.55685 -104.85009 5826 ft 7 kts 309°
2026-05-03 21:48 39.55763 -104.85026 5826 ft 24 kts 356°
2026-05-03 21:48 39.56222 -104.85048 5825 ft 110 kts 359°
2026-05-03 21:48 39.57240 -104.85089 5895 ft 172 kts 357°
2026-05-03 21:49 39.58486 -104.85102 6557 ft 187 kts 354°
2026-05-03 21:49 39.59806 -104.85437 7255 ft 208 kts 338°
2026-05-03 21:49 39.61134 -104.86273 7879 ft 220 kts 328°
2026-05-03 21:49 39.62581 -104.87394 8017 ft 266 kts 327°
2026-05-03 21:50 39.64230 -104.88703 8018 ft 281 kts 327°
2026-05-03 21:50 39.65895 -104.90025 8023 ft 278 kts 327°
2026-05-03 21:50 39.67558 -104.91335 8021 ft 278 kts 329°
2026-05-03 21:50 39.69371 -104.92141 8021 ft 280 kts 353°
2026-05-03 21:51 39.71337 -104.91908 8014 ft 283 kts 10°
2026-05-03 21:51 39.73263 -104.91347 8027 ft 293 kts 10°
2026-05-03 21:51 39.75310 -104.90762 8896 ft 308 kts 10°
2026-05-03 21:51 39.77355 -104.90175 10424 ft 300 kts 10°
2026-05-03 21:52 39.79402 -104.89590 11349 ft 313 kts 10°
2026-05-03 21:52 39.81589 -104.88966 12167 ft 328 kts 10°
2026-05-03 21:52 39.83831 -104.88325 13118 ft 336 kts 10°
2026-05-03 21:52 39.86105 -104.87713 14129 ft 340 kts
2026-05-03 21:53 39.88475 -104.87548 15141 ft 343 kts 358°
2026-05-03 21:53 39.90870 -104.87501 16101 ft 349 kts 358°
2026-05-03 21:53 39.93335 -104.87443 17109 ft 354 kts 358°
2026-05-03 21:53 39.95806 -104.87382 18111 ft 357 kts 358°
2026-05-03 21:54 39.98282 -104.87320 18978 ft 362 kts 358°
2026-05-03 21:54 40.00840 -104.87254 19831 ft 367 kts 358°
2026-05-03 21:54 40.03408 -104.87188 20619 ft 374 kts 358°
2026-05-03 21:54 40.06029 -104.87118 21424 ft 379 kts 358°
2026-05-03 21:55 40.08689 -104.87046 22240 ft 384 kts 358°
2026-05-03 21:55 40.11392 -104.86972 23018 ft 388 kts 357°
2026-05-03 21:55 40.14115 -104.86897 23771 ft 393 kts 357°
2026-05-03 21:55 40.16855 -104.86820 24538 ft 397 kts 357°
2026-05-03 21:56 40.19630 -104.86742 25284 ft 400 kts 356°
2026-05-03 21:56 40.22404 -104.86663 25962 ft 403 kts 356°
2026-05-03 21:56 40.25212 -104.86583 26597 ft 406 kts 356°
2026-05-03 21:56 40.28041 -104.86501 27181 ft 409 kts 356°
2026-05-03 21:57 40.30906 -104.86420 27700 ft 414 kts 356°
2026-05-03 21:57 40.33744 -104.86340 28124 ft 419 kts 356°
2026-05-03 21:57 40.36588 -104.86247 28733 ft 419 kts 356°
2026-05-03 21:57 40.39517 -104.86161 29312 ft 420 kts 356°
2026-05-03 21:58 40.42447 -104.86078 29775 ft 423 kts 356°
2026-05-03 21:58 40.45406 -104.85995 30154 ft 428 kts 356°
2026-05-03 21:58 40.48366 -104.85908 30672 ft 428 kts 356°
2026-05-03 21:58 40.51374 -104.85819 31100 ft 431 kts 355°
2026-05-03 21:59 40.54357 -104.85733 31501 ft 434 kts 355°
2026-05-03 21:59 40.57397 -104.85644 31869 ft 436 kts 355°
2026-05-03 21:59 40.60457 -104.85555 32154 ft 440 kts 356°
2026-05-03 21:59 40.63526 -104.85465 32508 ft 442 kts 355°
2026-05-03 22:00 40.66515 -104.85377 32869 ft 443 kts 356°
2026-05-03 22:00 40.69564 -104.85284 33303 ft 442 kts 355°
2026-05-03 22:00 40.72659 -104.85206 33736 ft 439 kts 353°
2026-05-03 22:00 40.75694 -104.85465 34122 ft 433 kts 346°
2026-05-03 22:01 40.78604 -104.86229 34553 ft 424 kts 339°
2026-05-03 22:01 40.81387 -104.87472 34958 ft 417 kts 332°
2026-05-03 22:01 40.83957 -104.89117 35271 ft 412 kts 326°
2026-05-03 22:01 40.86451 -104.90978 35593 ft 411 kts 325°
2026-05-03 22:02 40.88936 -104.92837 35896 ft 410 kts 325°
2026-05-03 22:02 40.91407 -104.94685 36176 ft 410 kts 325°
2026-05-03 22:02 40.93910 -104.96558 36484 ft 409 kts 325°
2026-05-03 22:02 40.96389 -104.98415 36844 ft 408 kts 325°
2026-05-03 22:03 40.98852 -105.00263 37179 ft 408 kts 325°
2026-05-03 22:03 41.01308 -105.02106 37520 ft 407 kts 325°
2026-05-03 22:03 41.03788 -105.03969 37816 ft 407 kts 324°
2026-05-03 22:03 41.06226 -105.05803 38042 ft 408 kts 325°
2026-05-03 22:04 41.11260 -105.09598 38057 ft 417 kts 325°
2026-05-03 22:04 41.16447 -105.13304 38094 ft 426 kts 327°
2026-05-03 22:05 41.21732 -105.16941 38093 ft 431 kts 328°
2026-05-03 22:05 41.27080 -105.20630 38103 ft 434 kts 328°
2026-05-03 22:06 41.32437 -105.24332 38122 ft 433 kts 328°
2026-05-03 22:06 41.37770 -105.28027 38113 ft 432 kts 327°
2026-05-03 22:07 41.43084 -105.31715 38123 ft 432 kts 328°
2026-05-03 22:07 41.48429 -105.35435 38110 ft 432 kts 328°
2026-05-03 22:08 41.53730 -105.39130 38119 ft 432 kts 328°
2026-05-03 22:08 41.59055 -105.42851 38106 ft 432 kts 328°
2026-05-03 22:09 41.64372 -105.46573 38118 ft 432 kts 328°
2026-05-03 22:10 41.72264 -105.52111 38114 ft 432 kts 328°
2026-05-03 22:10 41.77464 -105.55769 38102 ft 432 kts 328°
2026-05-03 22:11 41.82806 -105.59532 38110 ft 433 kts 328°
2026-05-03 22:11 41.88114 -105.63281 38109 ft 432 kts 328°
2026-05-03 22:12 41.93440 -105.67048 38093 ft 432 kts 327°
2026-05-03 22:12 41.98755 -105.70815 38102 ft 431 kts 328°
2026-05-03 22:13 42.04085 -105.74599 38104 ft 431 kts 327°
2026-05-03 22:13 42.09364 -105.78356 38108 ft 432 kts 328°
2026-05-03 22:14 42.14711 -105.82168 38088 ft 432 kts 328°
2026-05-03 22:14 42.20003 -105.85947 38095 ft 432 kts 328°
2026-05-03 22:15 42.25306 -105.89743 38095 ft 432 kts 328°
2026-05-03 22:15 42.30610 -105.93546 38102 ft 432 kts 328°
2026-05-03 22:16 42.35933 -105.97370 38093 ft 433 kts 328°
2026-05-03 22:16 42.41262 -106.01205 38106 ft 434 kts 328°
2026-05-03 22:17 42.46596 -106.05051 38105 ft 434 kts 328°
2026-05-03 22:17 42.51906 -106.08888 38088 ft 433 kts 328°
2026-05-03 22:18 42.57220 -106.12735 38077 ft 433 kts 328°
2026-05-03 22:18 42.62515 -106.16576 38084 ft 433 kts 328°
2026-05-03 22:19 42.67828 -106.20438 38074 ft 434 kts 328°
2026-05-03 22:19 42.73164 -106.24323 38072 ft 434 kts 328°
2026-05-03 22:20 42.78482 -106.28204 38056 ft 435 kts 329°
2026-05-03 22:20 42.83810 -106.32099 38035 ft 435 kts 328°
2026-05-03 22:21 42.89124 -106.35992 38024 ft 434 kts 328°
2026-05-03 22:21 42.94439 -106.39893 38013 ft 434 kts 328°
2026-05-03 22:22 42.99635 -106.43713 38010 ft 434 kts 329°
2026-05-03 22:22 43.04938 -106.47620 38020 ft 434 kts 329°
2026-05-03 22:23 43.10240 -106.51535 38022 ft 434 kts 329°
2026-05-03 22:23 43.15586 -106.55490 38032 ft 435 kts 329°
2026-05-03 22:24 43.20894 -106.59425 38039 ft 435 kts 329°
2026-05-03 22:24 43.26231 -106.63389 38057 ft 435 kts 329°
2026-05-03 22:25 43.31558 -106.67353 38054 ft 436 kts 329°
2026-05-03 22:25 43.36883 -106.71324 38055 ft 436 kts 328°
2026-05-03 22:26 43.42222 -106.75314 38071 ft 436 kts 329°
2026-05-03 22:26 43.47560 -106.79311 38074 ft 436 kts 329°
2026-05-03 22:27 43.52889 -106.83309 38094 ft 437 kts 329°
2026-05-03 22:27 43.58189 -106.87294 38098 ft 437 kts 329°
2026-05-03 22:28 43.63552 -106.91334 38097 ft 437 kts 329°
2026-05-03 22:28 43.68865 -106.95345 38106 ft 437 kts 329°
2026-05-03 22:29 43.74188 -106.99371 38124 ft 437 kts 329°
2026-05-03 22:29 43.79542 -107.03429 38125 ft 438 kts 329°
2026-05-03 22:30 43.84867 -107.07474 38126 ft 439 kts 329°
2026-05-03 22:30 43.90242 -107.11565 38136 ft 439 kts 329°
2026-05-03 22:31 43.95587 -107.15641 38122 ft 439 kts 329°
2026-05-03 22:31 44.00956 -107.19745 38128 ft 439 kts 330°
2026-05-03 22:32 44.06288 -107.23829 38123 ft 440 kts 330°
2026-05-03 22:32 44.11681 -107.27968 38090 ft 441 kts 330°
2026-05-03 22:33 44.17067 -107.32110 38120 ft 441 kts 330°
2026-05-03 22:33 44.22424 -107.36239 38096 ft 441 kts 330°
2026-05-03 22:34 44.27778 -107.40375 38097 ft 440 kts 330°
2026-05-03 22:34 44.33163 -107.44543 38091 ft 441 kts 330°
2026-05-03 22:35 44.38512 -107.48692 38078 ft 440 kts 330°
2026-05-03 22:35 44.43849 -107.52840 38075 ft 441 kts 330°
2026-05-03 22:36 44.49215 -107.57021 38064 ft 441 kts 330°
2026-05-03 22:36 44.54558 -107.61192 38066 ft 441 kts 330°
2026-05-03 22:37 44.59948 -107.65408 38059 ft 441 kts 329°
2026-05-03 22:37 44.65305 -107.69607 38061 ft 441 kts 329°
2026-05-03 22:38 44.70672 -107.73824 38067 ft 442 kts 329°
2026-05-03 22:38 44.76012 -107.78029 38067 ft 441 kts 329°
2026-05-03 22:39 44.81371 -107.82258 38076 ft 441 kts 330°
2026-05-03 22:39 44.86708 -107.86478 38080 ft 441 kts 330°
2026-05-03 22:40 44.92060 -107.90720 38069 ft 442 kts 330°
2026-05-03 22:40 44.97415 -107.94973 38065 ft 442 kts 330°
2026-05-03 22:41 45.02793 -107.99254 38081 ft 442 kts 330°
2026-05-03 22:41 45.08160 -108.03535 38072 ft 442 kts 330°
2026-05-03 22:42 45.13551 -108.07844 38052 ft 443 kts 330°
2026-05-03 22:42 45.18900 -108.12130 38046 ft 442 kts 330°
2026-05-03 22:43 45.24261 -108.16434 38025 ft 441 kts 330°
2026-05-03 22:43 45.29589 -108.20721 38014 ft 441 kts 330°
2026-05-03 22:44 45.34917 -108.25017 38009 ft 442 kts 330°
2026-05-03 22:44 45.40253 -108.29330 38000 ft 442 kts 330°
2026-05-03 22:45 45.45590 -108.33653 37986 ft 442 kts 330°
2026-05-03 22:45 45.50936 -108.37993 37965 ft 442 kts 330°
2026-05-03 22:46 45.56249 -108.42315 37948 ft 442 kts 330°
2026-05-03 22:46 45.61614 -108.46689 37949 ft 443 kts 330°
2026-05-03 22:47 45.66799 -108.50927 37938 ft 443 kts 330°
2026-05-03 22:47 45.72091 -108.55260 37926 ft 443 kts 330°
2026-05-03 22:48 45.77444 -108.59654 37927 ft 443 kts 330°
2026-05-03 22:48 45.82353 -108.64964 37930 ft 444 kts 316°
2026-05-03 22:49 45.86493 -108.71571 37930 ft 446 kts 312°
2026-05-03 22:49 45.90482 -108.78043 37932 ft 447 kts 312°
2026-05-03 22:50 45.94598 -108.84737 37941 ft 447 kts 312°
2026-05-03 22:50 45.98691 -108.91410 37947 ft 448 kts 312°
2026-05-03 22:51 46.02820 -108.98157 37962 ft 449 kts 312°
2026-05-03 22:51 46.06793 -109.04665 37956 ft 449 kts 312°
2026-05-03 22:52 46.10880 -109.11376 37947 ft 449 kts 312°
2026-05-03 22:52 46.14997 -109.18153 37945 ft 448 kts 312°
2026-05-03 22:53 46.19078 -109.24886 37950 ft 447 kts 312°
2026-05-03 22:53 46.23172 -109.31658 37960 ft 446 kts 312°
2026-05-03 22:54 46.27236 -109.38397 37966 ft 447 kts 313°
2026-05-03 22:54 46.31289 -109.45136 37971 ft 446 kts 313°
2026-05-03 22:55 46.35269 -109.51768 37984 ft 445 kts 313°
2026-05-03 22:55 46.39317 -109.58529 37976 ft 445 kts 313°
2026-05-03 22:56 46.43348 -109.65279 37980 ft 444 kts 312°
2026-05-03 22:56 46.47384 -109.72053 37977 ft 444 kts 312°
2026-05-03 22:57 46.51404 -109.78820 37977 ft 443 kts 312°
2026-05-03 22:57 46.55434 -109.85619 37996 ft 442 kts 313°
2026-05-03 22:58 46.59429 -109.92375 38236 ft 443 kts 312°
2026-05-03 22:58 46.61441 -109.95784 37894 ft 442 kts 312°
2026-05-03 22:58 46.63438 -109.99174 38129 ft 443 kts 312°
2026-05-03 22:58 46.65429 -110.02554 37894 ft 439 kts 312°
2026-05-03 22:59 46.67407 -110.05918 37979 ft 439 kts 312°
2026-05-03 22:59 46.71393 -110.12710 38027 ft 441 kts 312°
2026-05-03 23:00 46.75365 -110.19494 38027 ft 442 kts 313°
2026-05-03 23:00 46.79355 -110.26325 38027 ft 440 kts 313°
2026-05-03 23:01 46.83300 -110.33098 38022 ft 440 kts 312°
2026-05-03 23:01 46.87253 -110.39900 38028 ft 440 kts 313°
2026-05-03 23:02 46.91185 -110.46684 38029 ft 440 kts 312°
2026-05-03 23:02 46.95148 -110.53536 38037 ft 439 kts 313°
2026-05-03 23:03 46.99075 -110.60346 38039 ft 439 kts 313°
2026-05-03 23:03 47.03012 -110.67190 38035 ft 438 kts 311°
2026-05-03 23:04 47.06950 -110.74051 38037 ft 437 kts 311°
2026-05-03 23:04 47.10836 -110.80840 38041 ft 437 kts 311°
2026-05-03 23:05 47.14742 -110.87678 38026 ft 437 kts 311°
2026-05-03 23:05 47.18657 -110.94552 38012 ft 438 kts 311°
2026-05-03 23:06 47.22552 -111.01409 38000 ft 437 kts 312°
2026-05-03 23:06 47.26427 -111.08246 37977 ft 437 kts 312°
2026-05-03 23:07 47.30265 -111.15035 37958 ft 436 kts 311°
2026-05-03 23:07 47.34124 -111.21878 37949 ft 436 kts 311°
2026-05-03 23:08 47.37977 -111.28728 37945 ft 435 kts 311°
2026-05-03 23:08 47.41834 -111.35603 37934 ft 435 kts 311°
2026-05-03 23:09 47.45595 -111.42430 37933 ft 435 kts 309°
2026-05-03 23:09 47.49139 -111.49669 37931 ft 436 kts 308°
2026-05-03 23:10 47.52679 -111.56934 37930 ft 437 kts 308°
2026-05-03 23:10 47.56229 -111.64236 37937 ft 437 kts 308°
2026-05-03 23:11 47.59684 -111.71359 37943 ft 437 kts 307°
2026-05-03 23:11 47.63213 -111.78653 37946 ft 436 kts 307°
2026-05-03 23:12 47.66747 -111.85974 38152 ft 438 kts 307°
2026-05-03 23:12 47.68443 -111.89493 37984 ft 438 kts 307°
2026-05-03 23:12 47.70199 -111.93143 37969 ft 436 kts 308°
2026-05-03 23:13 47.73703 -112.00440 37958 ft 434 kts 307°
2026-05-03 23:13 47.77054 -112.07434 37953 ft 434 kts 307°
2026-05-03 23:14 47.80548 -112.14748 37960 ft 435 kts 307°
2026-05-03 23:14 47.84061 -112.22116 37951 ft 435 kts 307°
2026-05-03 23:15 47.87536 -112.29428 37965 ft 434 kts 307°
2026-05-03 23:15 47.91024 -112.36787 37978 ft 434 kts 307°
2026-05-03 23:16 47.94497 -112.44132 37992 ft 434 kts 307°
2026-05-03 23:16 47.97974 -112.51507 37995 ft 434 kts 307°
2026-05-03 23:17 48.01425 -112.58845 38032 ft 433 kts 307°
2026-05-03 23:17 48.04896 -112.66244 38026 ft 433 kts 307°
2026-05-03 23:18 48.08357 -112.73644 38049 ft 433 kts 307°
2026-05-03 23:18 48.11797 -112.81019 38045 ft 434 kts 307°
2026-05-03 23:19 48.15244 -112.88429 38048 ft 434 kts 307°
2026-05-03 23:19 48.18673 -112.95818 38056 ft 433 kts 307°
2026-05-03 23:20 48.22028 -113.03069 38058 ft 433 kts 307°
2026-05-03 23:20 48.25411 -113.10400 38056 ft 433 kts 307°
2026-05-03 23:21 48.28833 -113.17836 38055 ft 433 kts 307°
2026-05-03 23:21 48.32241 -113.25259 38047 ft 433 kts 307°
2026-05-03 23:22 48.37370 -113.36474 38042 ft 433 kts 306°
2026-05-03 23:22 48.40757 -113.43903 38039 ft 433 kts 307°
2026-05-03 23:23 48.44158 -113.51385 38032 ft 433 kts 306°
2026-05-03 23:23 48.47555 -113.58879 38038 ft 434 kts 306°
2026-05-03 23:24 48.50950 -113.66389 38040 ft 434 kts 306°
2026-05-03 23:24 48.54342 -113.73912 38049 ft 434 kts 306°
2026-05-03 23:25 48.57743 -113.81477 38055 ft 434 kts 306°
2026-05-03 23:25 48.61108 -113.88984 38049 ft 434 kts 306°
2026-05-03 23:26 48.64496 -113.96560 38044 ft 434 kts 306°
2026-05-03 23:26 48.67868 -114.04124 38035 ft 434 kts 306°
2026-05-03 23:27 48.71233 -114.11693 38035 ft 434 kts 306°
2026-05-03 23:27 48.74599 -114.19286 38018 ft 434 kts 306°
2026-05-03 23:28 48.77955 -114.26878 38008 ft 434 kts 306°
2026-05-03 23:28 48.81300 -114.34464 38022 ft 434 kts 306°
2026-05-03 23:29 48.84653 -114.42094 38025 ft 434 kts 306°
2026-05-03 23:29 48.88006 -114.49742 38019 ft 434 kts 306°
2026-05-03 23:30 48.91329 -114.57343 38017 ft 435 kts 306°
2026-05-03 23:30 48.94674 -114.65019 38019 ft 435 kts 305°
2026-05-03 23:31 48.97976 -114.72616 38017 ft 435 kts 306°
2026-05-03 23:31 49.01227 -114.80125 38020 ft 435 kts 306°
2026-05-03 23:32 49.04558 -114.87858 38019 ft 435 kts 306°
2026-05-03 23:32 49.07858 -114.95539 38021 ft 434 kts 306°
2026-05-03 23:33 49.11166 -115.03262 38016 ft 435 kts 306°
2026-05-03 23:33 49.14469 -115.10995 37997 ft 435 kts 306°
2026-05-03 23:34 49.17772 -115.18749 37975 ft 435 kts 306°
2026-05-03 23:34 49.21043 -115.26453 37950 ft 434 kts 306°
2026-05-03 23:35 49.24335 -115.34226 37979 ft 434 kts 306°
2026-05-03 23:35 49.27607 -115.41973 38000 ft 434 kts 306°
2026-05-03 23:36 49.30870 -115.49723 38004 ft 434 kts 306°
2026-05-03 23:36 49.34098 -115.57413 37713 ft 434 kts 306°
2026-05-03 23:37 49.35735 -115.61323 38093 ft 434 kts 306°
2026-05-03 23:37 49.37351 -115.65185 37906 ft 432 kts 305°
2026-05-03 23:37 49.40603 -115.72977 37988 ft 436 kts 305°
2026-05-03 23:38 49.43826 -115.80721 37987 ft 436 kts 305°
2026-05-03 23:38 49.47076 -115.88554 38014 ft 435 kts 305°
2026-05-03 23:39 49.50314 -115.96380 38043 ft 435 kts 306°
2026-05-03 23:39 49.53545 -116.04213 38053 ft 435 kts 305°
2026-05-03 23:40 49.56652 -116.12207 38050 ft 436 kts 301°
2026-05-03 23:40 49.59491 -116.20531 38051 ft 436 kts 301°
2026-05-03 23:41 49.62308 -116.28801 38052 ft 437 kts 302°
2026-05-03 23:41 49.65118 -116.37069 38053 ft 437 kts 302°
2026-05-03 23:42 49.67933 -116.45376 38049 ft 437 kts 301°
2026-05-03 23:42 49.70747 -116.53705 38046 ft 437 kts 302°
2026-05-03 23:43 49.73536 -116.61983 38056 ft 437 kts 302°
2026-05-03 23:43 49.76356 -116.70380 38063 ft 437 kts 301°
2026-05-03 23:44 49.79133 -116.78674 38065 ft 437 kts 301°
2026-05-03 23:44 49.81934 -116.87065 38062 ft 437 kts 301°
2026-05-03 23:45 49.84725 -116.95452 38056 ft 438 kts 301°
2026-05-03 23:45 49.87487 -117.03783 38052 ft 437 kts 301°
2026-05-03 23:46 49.90271 -117.12204 38041 ft 437 kts 301°
2026-05-03 23:46 49.93037 -117.20602 38032 ft 437 kts 301°
2026-05-03 23:47 49.95795 -117.28999 38020 ft 437 kts 301°
2026-05-03 23:47 49.98538 -117.37380 38023 ft 436 kts 302°
2026-05-03 23:48 50.01282 -117.45795 38027 ft 437 kts 301°
2026-05-03 23:48 50.04037 -117.54268 38024 ft 437 kts 302°
2026-05-03 23:49 50.06774 -117.62714 38020 ft 437 kts 302°
2026-05-03 23:49 50.09511 -117.71194 38022 ft 437 kts 301°
2026-05-03 23:50 50.11779 -117.78243 38014 ft 437 kts 301°
2026-05-03 23:50 50.15612 -117.87363 37994 ft 429 kts 313°
2026-05-03 23:51 50.19363 -117.94604 37985 ft 429 kts 313°
2026-05-03 23:51 50.23092 -118.01838 37971 ft 429 kts 313°
2026-05-03 23:52 50.26832 -118.09118 38004 ft 429 kts 313°
2026-05-03 23:52 50.30561 -118.16396 38038 ft 429 kts 313°
2026-05-03 23:53 50.34200 -118.23522 38053 ft 428 kts 313°
2026-05-03 23:53 50.37899 -118.30785 38065 ft 428 kts 313°
2026-05-03 23:54 50.41522 -118.37923 38060 ft 428 kts 313°
2026-05-03 23:54 50.43356 -118.41541 38177 ft 430 kts 313°
2026-05-03 23:54 50.45219 -118.45224 38086 ft 428 kts 313°
2026-05-03 23:55 50.48891 -118.52502 38055 ft 423 kts 314°
2026-05-03 23:55 50.52536 -118.59742 38034 ft 423 kts 314°
2026-05-03 23:56 50.56200 -118.67040 38007 ft 424 kts 313°
2026-05-03 23:56 50.59834 -118.74300 37975 ft 424 kts 313°
2026-05-03 23:57 50.63491 -118.81627 37982 ft 423 kts 313°
2026-05-03 23:57 50.67109 -118.88895 37992 ft 423 kts 313°
2026-05-03 23:58 50.70740 -118.96210 37990 ft 422 kts 313°
2026-05-03 23:58 50.74355 -119.03516 37982 ft 421 kts 313°
2026-05-03 23:59 50.77923 -119.10745 37958 ft 419 kts 313°
2026-05-03 23:59 50.81511 -119.18037 37965 ft 419 kts 313°
2026-05-04 00:00 50.85065 -119.25277 37979 ft 419 kts 314°
2026-05-04 00:00 50.88650 -119.32604 37997 ft 419 kts 313°
2026-05-04 00:01 50.92226 -119.39929 38022 ft 419 kts 314°
2026-05-04 00:01 50.95754 -119.47182 38037 ft 418 kts 314°
2026-05-04 00:02 50.99311 -119.54512 38035 ft 417 kts 314°
2026-05-04 00:02 51.01062 -119.58128 37903 ft 417 kts 313°
2026-05-04 00:02 51.02826 -119.61781 37370 ft 410 kts 313°
2026-05-04 00:03 51.04532 -119.65320 36842 ft 403 kts 313°
2026-05-04 00:03 51.06107 -119.68589 36375 ft 400 kts 313°
2026-05-04 00:03 51.07808 -119.72118 35870 ft 400 kts 313°
2026-05-04 00:03 51.09501 -119.75636 35373 ft 400 kts 313°
2026-05-04 00:04 51.11200 -119.79172 34868 ft 401 kts 313°
2026-05-04 00:04 51.12886 -119.82687 34349 ft 402 kts 313°
2026-05-04 00:04 51.14577 -119.86214 33831 ft 404 kts 312°
2026-05-04 00:04 51.16280 -119.89774 33275 ft 405 kts 312°
2026-05-04 00:05 51.17984 -119.93340 32736 ft 407 kts 311°
2026-05-04 00:05 51.19712 -119.96960 32176 ft 407 kts 311°
2026-05-04 00:05 51.21407 -120.00521 31635 ft 406 kts 311°
2026-05-04 00:05 51.23124 -120.04131 31088 ft 402 kts 311°
2026-05-04 00:06 51.24803 -120.07667 30553 ft 399 kts 310°
2026-05-04 00:06 51.26476 -120.11195 30036 ft 396 kts 310°
2026-05-04 00:06 51.28113 -120.14651 29523 ft 394 kts 310°
2026-05-04 00:06 51.29765 -120.18143 29002 ft 391 kts 310°
2026-05-04 00:07 51.31397 -120.21599 28488 ft 389 kts 310°
2026-05-04 00:07 51.32953 -120.24897 27992 ft 387 kts 310°
2026-05-04 00:07 51.34563 -120.28315 27480 ft 384 kts 310°
2026-05-04 00:07 51.36160 -120.31707 26979 ft 381 kts 310°
2026-05-04 00:08 51.37748 -120.35087 26478 ft 378 kts 309°
2026-05-04 00:08 51.39249 -120.38287 26004 ft 376 kts 310°
2026-05-04 00:08 51.40804 -120.41603 25519 ft 373 kts 309°
2026-05-04 00:08 51.42370 -120.44946 25032 ft 371 kts 309°
2026-05-04 00:09 51.43914 -120.48251 24542 ft 369 kts 309°
2026-05-04 00:09 51.45441 -120.51520 24065 ft 367 kts 309°
2026-05-04 00:09 51.46975 -120.54809 23571 ft 365 kts 309°
2026-05-04 00:09 51.48486 -120.58051 23091 ft 363 kts 309°
2026-05-04 00:10 51.49974 -120.61249 22620 ft 361 kts 309°
2026-05-04 00:10 51.51428 -120.64378 22144 ft 358 kts 309°
2026-05-04 00:10 51.52908 -120.67570 21673 ft 356 kts 308°
2026-05-04 00:10 51.54404 -120.70797 21185 ft 354 kts 308°
2026-05-04 00:11 51.55846 -120.73913 20734 ft 351 kts 308°
2026-05-04 00:11 51.57299 -120.77056 20261 ft 349 kts 308°
2026-05-04 00:11 51.58756 -120.80210 19792 ft 346 kts 308°
2026-05-04 00:11 51.60170 -120.83277 19334 ft 344 kts 308°
2026-05-04 00:12 51.61591 -120.86362 18883 ft 342 kts 308°
2026-05-04 00:12 51.62999 -120.89422 18430 ft 341 kts 308°
2026-05-04 00:12 51.64400 -120.92470 17981 ft 337 kts 308°
2026-05-04 00:12 51.65786 -120.95489 17534 ft 336 kts 308°
2026-05-04 00:13 51.67161 -120.98488 17094 ft 335 kts 308°
2026-05-04 00:13 51.68482 -121.01372 16589 ft 334 kts 308°
2026-05-04 00:13 51.69843 -121.04347 16143 ft 328 kts 308°
2026-05-04 00:13 51.71207 -121.07333 15705 ft 328 kts 308°
2026-05-04 00:14 51.72546 -121.10268 15274 ft 326 kts 308°
2026-05-04 00:14 51.73876 -121.13184 14839 ft 324 kts 308°
2026-05-04 00:14 51.75217 -121.16129 14407 ft 322 kts 308°
2026-05-04 00:14 51.76534 -121.19024 13978 ft 320 kts 308°
2026-05-04 00:15 51.77850 -121.21921 13553 ft 319 kts 308°
2026-05-04 00:15 51.79165 -121.24818 13130 ft 317 kts 308°
2026-05-04 00:15 51.80462 -121.27680 12713 ft 315 kts 308°
2026-05-04 00:15 51.81747 -121.30519 12317 ft 310 kts 308°
2026-05-04 00:16 51.83003 -121.33297 11898 ft 304 kts 308°
2026-05-04 00:16 51.84245 -121.36048 11474 ft 296 kts 308°
2026-05-04 00:16 51.85425 -121.38664 11107 ft 287 kts 308°
2026-05-04 00:16 51.86591 -121.41251 10729 ft 282 kts 308°
2026-05-04 00:17 51.87736 -121.43796 10359 ft 275 kts 308°
2026-05-04 00:17 51.88852 -121.46276 10003 ft 272 kts 308°
2026-05-04 00:17 51.89972 -121.48765 9655 ft 272 kts 308°
2026-05-04 00:17 51.91065 -121.51197 9287 ft 273 kts 308°
2026-05-04 00:18 51.92137 -121.53588 8938 ft 270 kts 308°
2026-05-04 00:18 51.93121 -121.55783 8620 ft 266 kts 308°
2026-05-04 00:18 51.94212 -121.58219 8254 ft 261 kts 308°
2026-05-04 00:18 51.95274 -121.60594 7910 ft 256 kts 308°
2026-05-04 00:19 51.96314 -121.62920 7570 ft 252 kts 308°
2026-05-04 00:19 51.97334 -121.65206 7235 ft 247 kts 308°
2026-05-04 00:19 51.98342 -121.67464 6908 ft 243 kts 307°
2026-05-04 00:19 51.99285 -121.69582 6598 ft 239 kts 307°
2026-05-04 00:20 52.00244 -121.71735 6282 ft 235 kts 308°
2026-05-04 00:20 52.01205 -121.73895 5968 ft 232 kts 307°
2026-05-04 00:20 52.02142 -121.76003 5655 ft 228 kts 307°
2026-05-04 00:20 52.03032 -121.78005 5370 ft 225 kts 307°
2026-05-04 00:21 52.03946 -121.80065 5074 ft 221 kts 307°
2026-05-04 00:21 52.04837 -121.82072 4778 ft 219 kts 306°
2026-05-04 00:21 52.05703 -121.84016 4528 ft 214 kts 308°
2026-05-04 00:21 52.06699 -121.85818 4493 ft 209 kts 314°
2026-05-04 00:22 52.07735 -121.87518 4485 ft 211 kts 314°
2026-05-04 00:22 52.08756 -121.89226 4492 ft 212 kts 315°
2026-05-04 00:22 52.09777 -121.90946 4491 ft 213 kts 314°
2026-05-04 00:22 52.10791 -121.92657 4499 ft 196 kts 313°
2026-05-04 00:23 52.11637 -121.94090 4501 ft 166 kts 316°
2026-05-04 00:23 52.12295 -121.95213 4523 ft 133 kts 315°
2026-05-04 00:23 52.12940 -121.96305 4355 ft 130 kts 317°
2026-05-04 00:23 52.13553 -121.97332 4228 ft 125 kts 314°
2026-05-04 00:24 52.14160 -121.98361 4017 ft 126 kts 310°
2026-05-04 00:24 52.14776 -121.99338 3842 ft 123 kts 313°
2026-05-04 00:24 52.15371 -122.00339 3725 ft 123 kts 310°
2026-05-04 00:24 52.15955 -122.01380 3585 ft 123 kts 312°
2026-05-04 00:25 52.16552 -122.02389 3434 ft 123 kts 317°
2026-05-04 00:25 52.17141 -122.03398 3265 ft 123 kts 310°
2026-05-04 00:25 52.17733 -122.04394 3113 ft 122 kts 316°
2026-05-04 00:25 52.18268 -122.05300 3077 ft 92 kts 314°
2026-05-04 00:26 52.18585 -122.05843 3084 ft 49 kts 315°
2026-05-04 00:26 52.18787 -122.06190 3089 ft 28 kts 313°
2026-05-04 00:26 52.18896 -122.06377 3090 ft 19 kts 314°
2026-05-04 00:26 52.18949 -122.06543 3090 ft 11 kts 271°
2026-05-04 00:27 52.18889 -122.06636 3090 ft 14 kts 182°
2026-05-04 00:27 52.18803 -122.06634 3090 ft 12 kts 180°
2026-05-04 00:27 52.18735 -122.06633 3090 ft 7 kts 174°
2026-05-04 00:27 52.18707 -122.06564 3090 ft 10 kts 117°
2026-05-04 00:28 52.18677 -122.06566 3090 ft 3 kts 269°
2026-05-04 00:28 52.18688 -122.06594 3090 ft 0 kts 311°